This is the latest recevied weather packets stored in our database for station/object WD5U-1. If no packets are shown the sender has not sent any weather packets the latest 10 day(s).
| Time | Temp. | Humidity | Pressure | Rain* | Wind** | Luminosity | Snow |
|---|---|---|---|---|---|---|---|
| 1777849265 | 26.11° C | 34% | 1016.8 hPa | 0 mm | - | - | - |
| 1777849102 | 26.11° C | 35% | 1017.1 hPa | 0 mm | - | - | - |
| 1777848981 | 26.67° C | 36% | 1017.1 hPa | 0 mm | - | - | - |
| 1777847900 | 26.67° C | 34% | 1017.2 hPa | 0 mm | - | - | - |
| 1777847665 | 26.67° C | 35% | 1017.2 hPa | 0 mm | - | - | - |
| 1777847058 | 26.67° C | 35% | 1017.3 hPa | 0 mm | - | - | - |
| 1777846723 | 26.67° C | 35% | 1017.1 hPa | 0 mm | - | - | - |
| 1777846339 | 26.67° C | 36% | 1017.3 hPa | 0 mm | - | - | - |
| 1777845620 | 27.22° C | 38% | 1017.5 hPa | 0 mm | - | - | - |
| 1777843719 | 26.67° C | 36% | 1018 hPa | 0 mm | - | - | - |
| 1777843221 | 26.67° C | 35% | 1018.3 hPa | 0 mm | - | - | - |
| 1777841419 | 26.67° C | 37% | 1018.6 hPa | 0 mm | - | - | - |
| 1777841065 | 26.67° C | 38% | 1018.8 hPa | 0 mm | - | - | - |
| 1777840943 | 27.22° C | 37% | 1018.8 hPa | 0 mm | - | - | - |
| 1777840457 | 26.67° C | 36% | 1019.1 hPa | 0 mm | - | - | - |
| 1777840336 | 26.67° C | 38% | 1019 hPa | 0 mm | - | - | - |
| 1777840103 | 26.11° C | 40% | 1019.1 hPa | 0 mm | - | - | - |
| 1777839498 | 26.67° C | 37% | 1019.3 hPa | 0 mm | - | - | - |
| 1777839264 | 26.11° C | 36% | 1019.1 hPa | 0 mm | - | - | - |
| 1777839142 | 26.67° C | 37% | 1019.3 hPa | 0 mm | - | - | - |
| 1777838779 | 26.67° C | 36% | 1019.3 hPa | 0 mm | - | - | - |
| 1777838423 | 26.11° C | 38% | 1019.5 hPa | 0 mm | - | - | - |
| 1777838058 | 26.11° C | 38% | 1019.8 hPa | 0 mm | - | - | - |
| 1777837342 | 25.56° C | 40% | 1019.7 hPa | 0 mm | - | - | - |
| 1777836864 | 25.56° C | 41% | 1020.1 hPa | 0 mm | - | - | - |
* Rain latest hour (hover to see other rain measurements)
** Current wind speed in m/s (hover to see current wind gust speed)